Wind_Speed
22 21 21 22 24 25 25 25 25 23 23 23 23 24 26 27 27 27 27 27 27 25 23 21 21 23 25 26 26 25 24 23 23 23 23 22 21 21 21 20 20 21 20 19 18 15 13 14 13 11 12 13 12 11 10 8 7 7 5 5 9 11 11 12 13 12 11 10 10 9 9 10 11 11 12 12 11 9 8 6 2 2 2 3 4
22 20 20 22 25 28 28 27 26 24 23 22 22 23 25 28 28 27 29 30 31 30 28 25 22 20 22 25 27 27 26 25 24 24 25 25 24 24 23 22 23 24 23 22 20 16 14 15 16 15 15 14 13 12 12 11 9 8 7 6 8 12 12 13 14 14 12 12 11 10 10 10 10 11 12 13 12 11 9 7 4 2 2 2 2
22 20 18 20 25 28 29 29 28 27 26 24 23 23 24 27 27 27 31 33 35 36 35 31 25 21 19 21 26 28 29 28 27 26 26 27 28 27 26 25 24 25 26 26 24 20 17 17 19 19 17 18 16 14 14 14 12 10 9 8 8 11 14 14 15 16 15 13 13 12 11 11 11 12 12 13 13 12 11 8 5 4 3 2 2
24 23 20 20 23 27 29 30 30 30 29 27 26 24 25 27 27 27 31 34 37 40 41 38 33 25 20 19 22 27 30 31 30 30 29 29 30 30 29 28 27 27 27 28 28 25 21 20 22 21 20 21 21 19 19 17 15 12 11 11 10 10 14 16 16 17 17 15 14 14 13 12 12 12 13 13 13 13 12 9 7 4 3 2 2
26 26 24 22 24 26 29 31 32 31 31 30 29 28 28 28 28 29 31 34 36 39 42 43 41 32 23 19 19 23 28 31 33 33 32 31 31 32 32 31 30 29 29 29 29 28 26 24 25 24 21 21 23 23 22 20 18 15 12 14 14 13 13 17 18 18 19 18 16 15 15 14 14 14 14 14 14 13 12 10 8 5 3 2 2
27 26 26 25 25 27 28 29 31 32 32 31 31 32 32 32 32 32 32 33 36 39 42 45 45 41 31 21 17 19 25 29 33 34 35 34 33 33 34 34 33 32 31 31 31 31 30 29 29 27 23 21 23 25 23 21 18 16 15 15 16 16 14 15 19 19 20 20 19 17 17 16 16 15 15 15 15 15 13 11 9 7 5 3 2
27 27 26 26 27 28 28 29 29 31 32 33 33 33 34 35 37 37 34 33 36 39 42 47 47 47 42 31 21 17 21 27 31 34 36 36 36 36 35 35 36 35 34 33 33 32 33 33 32 31 27 24 24 26 23 20 18 18 18 18 18 18 15 14 16 19 20 20 20 20 19 18 18 17 17 17 16 16 15 12 11 9 7 4 3
26 27 27 27 28 29 29 29 30 30 31 33 34 34 35 37 39 42 39 34 36 39 42 47 49 49 49 43 32 22 18 23 29 33 36 37 38 38 38 37 37 37 37 36 35 34 34 35 34 33 31 27 26 26 23 19 20 21 22 22 20 18 17 15 14 16 19 21 21 21 21 20 20 19 19 18 18 17 16 14 12 11 9 6 4
26 27 28 28 29 29 30 31 31 32 32 33 34 35 36 38 40 44 42 37 38 41 42 46 50 50 50 49 43 33 23 18 24 30 34 37 38 39 39 39 39 39 39 38 37 37 37 36 35 35 34 32 29 28 26 24 24 25 25 25 23 20 18 16 15 16 19 22 22 22 23 22 22 21 20 20 19 19 18 16 14 12 12 9 6
27 28 29 29 30 30 31 31 33 34 34 34 35 36 37 39 40 43 44 41 39 41 43 44 48 51 50 51 50 43 34 24 18 25 32 36 38 40 41 41 40 40 40 41 40 39 39 38 37 37 36 35 34 32 31 30 28 27 27 27 26 24 21 19 17 17 18 21 24 24 24 24 24 23 22 22 21 20 19 18 15 14 14 12 9
28 29 29 30 30 31 32 32 33 34 35 35 36 37 37 38 40 43 45 44 41 41 43 44 46 49 50 51 52 50 43 34 24 18 24 33 37 39 41 41 42 42 42 43 43 42 41 41 39 39 38 37 37 38 36 34 32 30 29 28 27 26 25 22 20 19 18 19 24 26 26 26 26 26 25 24 23 22 21 20 18 16 15 14 12
30 30 31 31 31 32 33 33 34 34 35 36 36 37 37 38 40 42 44 45 43 42 43 44 45 47 49 50 51 52 50 43 35 25 18 23 32 38 40 42 43 43 43 44 44 45 44 43 42 41 40 38 39 41 41 37 33 32 30 29 28 28 26 25 22 20 20 19 22 26 28 28 28 28 27 26 24 24 22 21 20 18 17 17 15
31 31 32 32 32 33 33 34 34 34 35 36 37 37 38 38 39 41 43 45 45 44 43 43 44 45 47 49 50 51 51 49 43 36 27 19 21 30 37 41 43 44 45 44 45 46 46 46 45 44 43 41 40 41 43 41 37 34 32 30 29 29 27 23 21 22 23 22 21 24 29 31 31 30 29 28 27 25 24 23 22 21 19 19 18
31 32 32 33 33 34 34 35 35 35 35 36 37 38 38 38 39 40 41 43 45 45 45 44 44 44 45 46 48 49 50 50 48 44 37 29 21 20 28 36 42 45 46 46 46 46 47 47 47 46 46 44 43 42 44 44 42 38 35 33 31 30 29 24 22 25 27 27 26 26 29 32 33 33 32 31 30 28 27 25 24 23 21 21 20
31 32 33 34 34 35 35 35 35 36 36 36 37 38 39 39 38 39 39 41 42 44 45 45 44 43 44 45 47 47 48 48 48 47 44 39 32 24 20 26 35 42 45 47 47 47 47 47 48 48 48 47 46 45 44 45 46 43 39 37 35 33 32 29 28 31 32 33 32 29 29 31 34 36 35 35 33 31 29 28 26 25 24 23 22
32 33 34 34 35 35 36 36 36 37 37 37 38 39 40 39 38 38 39 40 40 42 43 44 44 44 43 44 46 47 46 47 47 46 46 44 40 35 26 21 24 34 42 46 48 48 48 47 48 49 49 50 49 48 47 46 46 47 44 41 39 37 36 35 35 36 36 35 34 32 32 32 33 36 37 37 36 35 33 31 29 27 26 25 24
33 34 35 35 36 36 37 37 37 38 38 38 38 39 40 40 38 38 38 40 40 40 41 42 42 43 43 44 46 47 46 46 46 46 46 45 45 43 36 28 21 22 33 42 46 48 49 49 48 49 49 51 51 50 50 48 47 47 47 46 44 41 39 39 40 41 38 36 37 37 35 34 34 35 37 39 38 37 36 34 32 30 29 28 26
34 35 36 36 37 37 38 38 38 38 38 38 39 40 41 40 38 38 38 40 41 41 40 40 41 42 43 43 45 47 47 47 45 46 47 46 46 47 43 36 30 23 20 31 41 46 48 49 49 50 50 51 52 53 52 52 50 48 48 48 48 45 43 42 44 45 42 39 39 39 36 35 35 34 35 38 39 39 38 37 35 33 32 30 29
36 36 37 37 38 38 38 39 39 39 39 39 39 40 41 40 38 38 38 40 43 43 41 40 41 41 41 42 44 46 48 48 46 46 49 49 47 47 46 42 38 33 25 20 28 39 46 48 50 51 52 52 53 54 55 55 54 52 50 49 50 50 48 47 47 49 48 44 41 40 39 38 37 36 34 36 39 40 40 38 37 36 34 33 31
37 37 37 38 38 39 39 40 40 40 40 39 40 41 42 41 38 37 39 41 44 45 43 41 40 41 41 41 43 45 48 49 48 47 48 50 51 50 48 45 43 40 35 27 20 25 37 45 50 51 53 54 54 55 56 57 57 56 54 52 51 51 52 52 51 52 51 49 45 44 43 42 40 39 37 35 37 40 41 40 39 38 37 35 34
38 38 38 38 39 39 40 41 41 41 41 41 42 42 42 41 37 36 39 42 44 45 44 42 40 41 42 42 42 44 47 50 51 50 50 51 52 52 51 48 46 44 41 36 29 23 24 34 44 51 53 54 56 56 57 58 59 59 59 57 54 53 53 55 55 55 54 53 50 48 46 45 44 43 41 38 37 38 41 42 41 40 39 38 36
38 39 38 38 40 41 42 42 43 43 43 43 44 43 42 40 36 35 38 42 44 45 44 43 41 41 42 44 44 44 45 49 52 52 53 53 53 53 54 52 48 46 45 43 39 33 27 26 33 44 52 55 57 58 58 59 60 61 61 61 59 57 55 56 57 58 58 56 54 52 50 49 48 46 45 42 40 38 40 42 43 42 41 40 38
40 41 39 38 41 43 43 44 45 45 45 45 45 44 42 39 36 35 37 41 43 44 44 44 43 43 43 43 45 46 46 48 51 53 54 55 56 56 56 55 52 50 49 48 47 43 38 31 29 33 44 53 57 59 60 61 61 62 62 63 63 62 59 58 58 59 61 61 58 55 54 53 51 50 48 46 44 42 40 41 44 44 43 42 40
41 42 40 39 42 44 45 45 46 46 46 46 46 44 41 38 36 35 36 39 42 43 44 45 45 44 43 43 45 46 46 47 49 52 54 55 56 58 58 57 55 52 52 51 49 47 45 41 35 32 35 44 53 58 60 62 62 62 63 64 65 65 64 62 60 59 62 64 63 60 57 55 54 53 50 48 47 46 43 41 43 45 45 43 42
41 43 42 41 43 45 46 47 47 46 46 46 45 42 39 37 37 36 37 39 41 43 44 45 46 45 43 43 44 45 45 47 49 51 53 54 55 58 59 60 58 56 55 55 52 48 44 43 41 37 35 36 44 53 59 62 64 64 64 64 65 66 67 66 64 61 61 64 67 65 62 58 56 55 53 50 49 49 47 44 43 44 46 46 44
43 44 43 43 44 45 46 47 46 44 44 44 43 39 36 36 38 38 37 39 41 43 44 45 46 46 44 42 43 45 46 47 48 51 52 53 56 59 60 61 61 60 59 59 58 54 47 42 40 39 38 37 38 43 52 59 63 65 65 66 66 66 67 68 68 65 63 64 67 69 67 63 59 57 56 53 51 51 50 48 46 45 46 47 47
46 45 45 44 44 45 47 45 42 41 42 42 40 37 36 37 39 39 38 39 41 43 45 46 47 47 45 44 43 45 47 48 49 51 52 53 56 59 61 63 64 63 63 63 63 61 55 47 41 38 38 40 39 38 43 51 59 64 67 67 67 67 67 68 70 69 67 65 66 70 71 68 63 60 58 56 55 53 52 51 50 49 48 48 49
47 47 47 46 45 46 45 39 37 40 41 40 38 37 38 39 40 40 41 41 42 44 46 47 49 49 47 46 46 48 50 52 53 54 54 54 56 59 62 64 66 66 67 69 69 67 63 55 46 40 37 39 42 41 40 43 50 58 65 68 69 69 69 69 70 71 70 68 67 69 71 71 68 64 62 60 58 56 55 53 52 51 50 49 49
48 48 47 45 44 43 39 33 34 39 40 39 39 39 41 42 41 42 43 43 43 46 47 49 51 51 50 50 50 51 54 56 57 57 56 55 58 61 63 66 68 69 70 74 74 72 69 60 50 43 39 38 41 44 42 42 43 48 56 64 68 70 70 70 70 71 72 72 69 68 70 72 71 68 66 64 62 59 58 56 55 54 53 51 49
45 43 43 41 39 38 37 34 35 39 41 42 42 41 42 43 43 43 44 43 45 47 48 50 52 53 52 52 54 55 58 59 59 59 58 58 60 63 65 69 71 72 73 77 79 78 75 66 53 44 41 39 40 43 45 45 44 44 47 54 64 69 71 71 72 72 73 74 73 71 70 71 72 71 70 67 65 63 61 58 56 56 55 53 51
38 40 42 41 39 40 42 40 38 40 42 42 42 43 44 44 44 44 44 45 47 48 49 51 53 54 54 54 57 60 61 61 61 61 60 61 63 65 68 71 74 75 76 80 82 82 79 69 56 45 40 39 39 41 45 47 47 46 44 46 54 64 70 72 72 73 74 75 76 75 72 72 72 73 73 71 68 67 65 62 59 58 57 55 53
37 42 42 41 42 44 45 45 43 43 43 43 43 45 45 44 44 45 45 47 49 50 52 53 55 56 56 56 60 63 63 63 63 62 62 63 65 67 69 73 75 77 79 81 83 83 79 70 57 47 39 38 39 40 45 47 48 49 47 44 46 55 64 70 73 74 75 75 76 77 76 74 73 74 75 74 72 70 69 67 64 61 60 57 55
39 40 39 41 45 48 49 49 46 45 47 48 48 48 45 44 44 45 46 48 50 53 54 55 57 58 57 58 62 65 64 64 64 64 64 65 66 68 70 74 77 79 81 82 82 82 77 66 56 47 39 37 39 40 43 47 49 50 50 48 46 48 56 65 71 74 75 76 76 78 79 78 76 75 77 77 75 73 72 71 69 66 63 60 57
39 39 40 43 49 52 53 50 47 48 51 52 52 50 47 45 45 46 47 49 51 54 56 57 59 59 58 60 64 65 65 66 66 66 67 68 68 69 72 76 80 82 82 82 81 78 73 63 53 47 40 37 39 41 43 46 50 51 51 50 48 47 50 58 67 72 75 77 77 77 79 80 80 78 78 79 78 76 74 74 73 71 68 64 60
42 43 45 48 53 55 53 50 49 51 52 53 53 52 49 47 47 48 49 50 51 54 56 59 60 60 60 64 66 67 68 69 69 69 70 70 70 72 75 79 83 85 85 83 78 71 67 61 52 47 42 39 39 42 43 46 50 52 52 52 51 49 48 53 61 68 72 75 78 78 79 80 81 81 80 80 81 79 77 75 76 75 72 68 63
49 48 49 51 54 56 54 52 51 51 51 53 53 52 49 48 49 50 50 50 51 54 57 59 60 61 64 67 69 70 71 72 72 72 72 73 74 76 79 82 86 87 86 82 73 64 62 60 55 50 45 41 41 42 43 45 50 52 53 53 53 52 49 50 56 63 68 72 76 79 80 80 81 83 83 82 82 82 79 78 77 77 75 71 67
50 50 49 50 52 53 53 52 49 48 51 53 52 51 50 50 51 51 50 49 51 55 57 59 62 65 67 69 71 73 74 74 75 75 75 76 78 80 82 85 88 88 86 78 68 60 59 59 57 54 50 46 44 43 43 45 49 52 53 53 54 54 51 50 53 59 64 69 73 77 80 81 81 82 84 85 84 84 82 80 79 79 77 74 71
50 50 49 49 50 50 48 48 45 46 51 53 52 53 54 54 55 55 54 53 55 59 61 63 66 68 69 71 74 75 76 76 76 76 78 80 81 83 85 87 88 87 82 74 64 59 58 58 57 56 55 52 48 45 44 45 48 52 53 53 55 55 52 51 52 56 61 66 70 74 78 81 82 82 84 86 87 86 85 83 81 80 79 76 74
52 51 49 49 49 47 45 44 46 49 53 55 56 58 59 59 59 58 59 60 61 64 66 68 70 71 71 74 76 77 77 77 77 79 82 83 84 86 87 87 87 84 78 70 62 58 58 58 57 57 57 56 52 48 47 46 48 51 53 54 54 54 53 52 53 55 59 64 68 72 76 80 82 83 83 85 87 88 87 86 84 83 81 79 76
54 53 53 53 52 50 48 50 54 57 58 60 62 63 62 61 61 61 63 64 66 68 70 71 72 73 75 77 78 78 78 78 80 84 86 86 86 87 87 87 85 81 75 68 63 59 58 57 57 57 56 56 54 50 48 48 48 50 54 55 54 53 52 53 55 55 57 62 67 70 73 77 81 83 84 85 86 88 88 88 87 86 84 82 79
54 55 55 56 57 58 59 60 62 63 62 63 65 64 63 62 63 64 66 67 69 71 72 73 75 76 77 79 79 78 78 79 84 88 88 87 87 88 88 87 84 79 73 68 63 61 59 57 57 57 56 55 54 52 49 49 49 50 54 55 55 54 53 53 56 55 55 59 65 68 71 74 78 83 85 85 85 87 89 89 89 89 87 84 82
58 59 60 62 64 65 64 63 64 64 64 64 64 64 63 64 65 67 69 70 71 73 75 76 78 78 78 78 77 78 80 83 87 89 88 88 88 88 89 87 83 78 72 68 64 61 60 59 58 56 54 54 54 52 50 49 49 51 54 55 55 55 55 54 55 56 56 58 62 66 70 72 75 80 83 84 85 85 87 89 90 90 90 88 85
64 64 65 67 69 69 66 66 67 67 66 66 65 65 65 66 67 69 70 73 75 76 77 77 78 77 77 76 77 79 83 87 88 88 88 89 89 89 89 87 83 78 72 68 66 64 62 61 59 55 53 52 53 53 51 49 48 50 53 55 55 56 56 56 56 56 56 57 59 64 68 71 72 76 80 84 85 84 84 87 89 90 91 90 88
67 67 68 69 70 70 69 69 69 69 68 67 67 66 66 67 69 71 73 75 76 77 77 77 76 76 76 77 80 84 87 88 87 87 88 89 90 90 90 88 83 78 73 69 67 66 65 63 60 57 53 50 51 52 52 49 48 49 53 55 56 56 56 56 56 57 56 55 58 62 67 70 70 71 76 81 84 83 82 84 87 89 90 91 91
68 70 71 72 72 72 72 70 69 68 67 66 65 66 67 68 70 72 74 76 76 77 77 76 75 75 77 80 83 86 87 86 86 87 88 89 90 90 89 87 82 77 74 71 68 67 66 64 62 59 55 50 49 51 52 50 47 48 51 55 56 56 56 56 57 59 56 54 57 61 66 68 67 67 73 78 81 82 82 82 84 87 89 90 92
69 70 70 71 71 71 70 68 67 67 66 65 65 67 69 71 73 74 75 76 77 77 77 76 76 77 80 82 84 85 86 85 86 87 88 89 89 89 87 83 80 77 75 72 70 68 66 64 62 59 56 52 49 49 51 50 47 47 50 53 55 55 55 56 58 59 57 54 55 59 64 67 65 64 70 75 77 80 82 81 82 84 87 89 90
70 70 70 70 70 69 69 69 69 71 71 70 69 70 73 75 77 77 77 77 77 77 77 76 77 79 80 82 84 85 85 85 85 86 87 89 88 86 83 80 79 78 77 74 71 69 67 64 61 58 54 51 50 48 49 48 48 47 48 52 54 54 55 58 58 58 57 56 54 55 61 65 64 63 67 72 75 78 81 82 81 81 85 88 88
72 73 72 71 71 70 72 74 76 77 78 76 74 75 77 79 78 77 77 77 76 74 75 75 77 80 81 82 84 85 84 85 86 86 88 89 86 82 79 79 80 79 77 75 72 69 67 65 61 57 53 49 48 48 47 47 47 47 47 50 53 54 56 58 58 57 58 57 54 52 57 64 65 64 67 70 72 76 80 82 82 80 82 86 88
70 72 73 73 73 73 74 77 80 82 82 80 79 80 81 81 79 77 77 75 71 69 72 75 78 81 81 81 84 85 85 86 87 88 89 88 84 80 79 80 80 79 78 76 73 70 68 66 62 57 52 48 46 46 46 45 45 46 47 48 51 53 55 57 57 57 58 58 54 51 55 62 66 66 67 68 69 74 78 81 82 81 81 83 86
70 71 72 74 75 76 76 77 78 79 80 81 81 82 82 80 77 76 76 73 69 70 75 79 80 81 80 80 83 86 86 88 89 89 87 85 82 81 82 81 81 80 78 76 74 72 70 66 62 57 51 47 45 45 45 44 43 44 46 48 50 52 53 55 56 56 58 58 54 51 54 61 66 68 67 66 68 73 78 81 82 82 81 81 84
72 74 74 75 75 76 75 74 74 74 76 79 80 79 78 76 76 76 76 75 74 76 80 82 82 82 81 80 83 85 88 90 90 87 83 81 81 82 82 81 80 80 79 77 75 73 70 67 62 56 51 46 43 42 43 43 42 43 45 48 50 50 50 53 55 55 58 58 53 52 57 62 65 68 69 67 68 72 77 80 82 82 82 81 82
Wind_Direction
20 20 21 23 23 21 20 18 17 16 17 19 21 24 24 23 22 22 21 17 13 5 352 333 310 291 279 276 275 273 269 264 260 257 254 250 248 246 244 239 235 241 244 241 235 227 220 225 226 226 238 250 265 276 282 284 289 296 289 252 233 227 222 214 209 209 208 204 200 196 191 181 170 164 163 162 160 165 169 163 132 51 51 47 44
16 15 18 22 21 18 16 14 11 8 6 5 5 9 13 15 17 18 16 14 12 9 4 356 340 318 293 278 272 270 267 264 259 255 253 249 247 245 244 241 236 236 241 242 238 227 219 229 231 222 221 232 248 261 269 274 278 281 284 276 247 233 229 222 213 212 212 211 207 205 201 194 184 175 171 170 169 171 176 179 168 133 119 100 64
15 9 5 9 12 12 12 11 10 7 5 2 1 2 6 9 14 16 14 14 14 11 7 3 355 340 316 290 274 267 264 263 260 255 251 248 246 244 242 241 239 236 237 240 240 234 227 229 231 225 220 222 228 237 249 260 266 270 273 278 266 242 233 228 220 214 215 215 212 210 208 203 195 185 180 178 176 177 181 186 177 149 133 129 114
20 15 10 8 9 11 13 13 11 10 9 8 7 5 4 4 5 5 4 6 9 8 8 6 1 350 334 309 283 268 262 259 258 255 251 247 244 242 241 240 239 237 237 238 238 238 234 230 229 229 226 221 221 224 230 239 247 252 263 273 274 257 237 230 225 218 215 217 217 214 212 209 204 195 188 185 184 183 185 191 191 176 152 146 148
24 24 24 21 16 13 14 14 14 13 13 13 12 8 4 0 358 355 355 359 1 3 5 6 4 358 346 326 298 274 262 256 253 253 251 247 243 241 239 239 238 237 237 236 236 237 237 235 232 231 230 227 226 226 226 229 231 235 250 264 268 266 249 233 228 222 217 216 218 217 216 213 209 203 196 192 191 190 191 195 202 205 197 187 187
22 23 23 20 15 11 10 11 12 12 12 12 10 9 6 3 360 356 354 356 359 2 4 6 7 5 359 343 317 285 266 256 251 248 248 246 243 240 239 238 238 237 236 235 234 234 235 236 235 233 231 233 235 233 231 229 227 226 233 246 255 259 257 244 233 227 221 216 217 219 218 216 212 208 203 198 196 195 197 200 207 216 221 217 206
16 16 16 14 12 10 8 7 7 8 8 8 7 7 6 5 4 1 356 355 360 4 6 7 8 10 8 0 342 307 274 259 252 247 245 244 243 241 239 238 237 237 237 235 234 233 233 234 235 234 230 231 237 238 236 233 229 228 226 232 244 250 254 255 245 237 230 221 218 219 220 218 216 212 208 204 201 200 201 204 210 216 221 222 209
10 10 10 9 7 6 5 4 3 3 3 3 3 2 1 1 2 3 0 358 2 5 7 8 9 11 12 9 1 341 301 267 253 248 244 242 241 240 240 239 237 237 237 237 235 234 233 234 234 233 229 228 234 236 235 233 231 230 227 228 238 247 250 256 258 248 238 230 223 221 222 221 219 216 212 209 207 204 204 206 210 211 213 217 210
4 4 4 4 3 1 0 0 0 0 359 358 358 358 357 357 358 2 2 1 3 6 7 8 9 11 12 12 9 1 342 300 263 250 245 242 240 239 238 239 238 237 237 237 236 236 235 235 235 234 229 225 229 231 230 229 228 227 226 226 230 239 242 246 252 251 243 236 230 225 224 224 222 220 216 214 212 210 208 208 210 209 207 210 211
357 358 359 359 358 357 357 356 357 357 357 355 355 354 354 354 355 359 2 2 2 4 5 6 8 11 13 13 13 10 3 346 303 263 249 244 241 239 238 237 237 237 238 237 236 236 236 236 235 236 233 227 226 228 227 226 227 227 226 224 224 228 232 235 241 249 248 241 234 229 226 226 225 223 220 217 216 215 214 213 211 210 206 205 208
354 355 355 355 355 354 354 354 354 354 354 353 352 351 351 351 353 356 360 2 2 2 4 3 5 10 13 12 13 13 11 6 351 308 266 251 244 240 238 237 237 236 236 237 237 236 235 235 234 234 234 232 228 228 229 227 228 230 228 224 223 223 225 228 235 247 254 249 241 234 230 228 227 226 223 219 218 218 218 218 216 214 209 206 205
353 353 353 352 352 352 352 352 352 352 351 351 350 349 348 348 349 352 356 0 2 2 2 2 2 5 10 12 12 13 13 13 9 355 317 273 254 246 241 238 238 237 236 236 236 237 235 234 233 233 233 233 231 229 230 228 227 228 227 225 225 224 222 224 231 242 250 249 243 238 233 231 230 228 227 223 220 219 219 220 220 218 215 210 207
350 350 350 349 349 349 350 351 351 350 349 349 348 348 347 346 347 349 353 357 1 2 3 3 2 1 4 9 12 13 13 14 14 11 360 329 285 261 249 243 240 238 237 236 235 236 236 235 233 232 231 231 231 230 229 227 226 226 224 224 225 224 221 222 230 239 243 242 242 240 235 232 231 229 229 228 224 221 221 221 221 221 219 215 211
346 345 345 346 346 346 347 348 348 348 348 348 347 346 345 345 345 346 350 354 358 2 3 3 2 1 360 2 8 12 13 14 15 14 11 3 341 299 268 253 246 242 240 238 237 235 236 236 234 232 231 231 230 230 230 228 226 225 223 223 224 223 219 217 228 237 237 237 237 237 236 233 231 228 228 228 227 224 223 222 222 222 222 220 215
341 341 342 342 342 343 344 345 345 346 346 345 345 344 343 343 343 344 346 350 354 358 2 3 2 1 360 359 1 6 10 13 14 14 14 12 5 349 311 274 256 248 243 241 239 237 236 236 236 234 232 231 230 229 230 230 228 225 221 219 221 224 220 213 220 229 230 231 232 235 238 235 232 230 227 226 226 225 224 223 224 223 222 222 219
337 337 338 339 339 339 341 342 343 343 343 343 343 342 342 341 341 342 343 346 350 354 358 0 1 1 0 359 360 2 5 8 10 11 13 13 11 6 354 322 280 257 248 244 242 240 239 237 237 236 234 233 232 230 230 230 230 228 223 217 217 221 221 216 218 224 228 229 227 229 235 235 233 231 229 227 225 225 224 223 223 224 223 222 222
334 335 335 336 336 337 338 340 340 341 341 341 340 340 340 339 339 341 342 344 346 349 353 355 357 359 359 357 359 2 2 5 7 6 8 10 9 7 5 357 332 286 258 248 244 242 241 240 238 238 236 235 234 233 232 231 230 230 227 221 217 217 218 217 219 222 228 232 228 225 229 234 236 233 230 229 227 226 225 224 223 224 223 223 222
332 332 333 333 333 334 335 337 338 338 339 339 339 339 339 338 338 340 341 342 344 345 346 350 353 355 356 356 357 359 2 4 6 4 4 5 5 5 6 5 1 343 296 260 248 244 242 241 240 239 238 237 235 234 234 233 232 231 230 227 223 219 217 217 219 221 225 230 231 229 229 233 238 238 233 230 229 227 226 225 225 224 224 223 222
330 330 330 331 331 332 333 334 335 336 337 337 337 337 338 337 337 340 341 341 342 342 342 344 348 350 352 354 354 355 357 1 5 5 4 3 2 2 3 4 4 1 348 307 265 250 244 242 241 240 239 239 237 236 234 234 233 232 231 230 228 224 220 217 218 221 223 226 229 230 230 230 235 238 236 233 230 228 227 226 225 225 224 224 223
328 328 329 329 330 330 331 332 333 335 336 336 336 336 337 337 336 339 342 341 341 341 341 340 342 345 347 349 351 351 352 355 359 2 3 2 1 0 359 360 360 359 357 348 317 274 254 246 242 241 240 240 239 238 236 234 233 233 232 231 229 227 224 221 219 220 222 225 227 229 229 229 231 233 234 236 234 230 228 227 225 224 225 225 225
327 327 327 328 329 329 329 330 332 334 335 335 336 336 337 336 335 338 341 342 342 341 340 338 337 339 341 343 346 347 347 349 352 356 358 359 0 0 359 357 356 356 355 352 345 323 285 260 248 243 241 241 240 240 239 236 234 233 232 231 230 228 227 225 222 220 221 224 227 228 227 228 229 230 231 234 235 232 229 227 226 224 223 224 225
325 327 326 327 329 329 329 330 332 333 334 335 336 336 336 334 332 335 339 342 343 342 341 339 336 335 336 338 340 342 344 345 347 350 352 354 356 357 358 357 355 355 355 352 348 340 323 294 266 251 244 241 241 240 240 239 237 235 233 232 231 229 228 227 225 223 222 224 226 227 227 227 227 228 228 230 233 234 231 228 226 225 223 223 224
323 325 324 326 329 329 329 330 332 333 334 334 334 335 334 333 330 331 335 340 342 343 342 340 337 333 333 334 336 338 340 342 343 345 347 349 351 353 354 354 354 354 353 352 348 343 334 319 295 270 253 245 242 240 240 239 239 237 235 233 232 231 229 228 227 226 224 224 225 226 227 227 227 226 226 227 229 232 233 230 226 225 224 223 223
324 325 323 323 327 328 329 330 332 332 333 332 332 333 333 331 329 328 330 335 340 341 341 340 338 334 331 331 333 335 337 338 339 342 344 345 347 348 348 350 351 351 350 349 347 344 337 327 310 291 271 255 246 242 241 240 239 239 238 236 234 232 230 229 228 227 226 225 226 226 226 226 226 226 226 226 226 229 231 231 228 225 224 224 223
324 325 324 321 323 325 327 329 330 331 331 331 331 331 331 329 327 326 327 330 334 337 338 338 338 335 331 330 332 334 334 335 336 338 340 341 342 343 345 346 347 347 347 346 344 340 336 329 316 299 284 271 257 247 243 241 240 239 239 238 236 234 232 230 229 228 227 226 226 226 226 225 225 225 226 226 225 227 228 229 229 226 224 223 223
322 324 324 321 320 322 324 326 329 331 332 332 332 330 328 327 326 325 325 326 327 331 334 335 336 335 332 330 331 333 333 333 334 334 336 337 339 340 341 343 344 344 343 342 342 338 333 327 319 303 286 277 269 257 247 243 241 240 239 238 237 236 234 231 229 228 227 226 225 226 226 225 224 224 225 225 225 225 226 227 229 227 225 223 222
321 322 322 322 320 320 323 326 331 335 335 333 330 327 325 324 324 324 323 321 322 325 329 331 332 333 332 330 330 330 331 332 332 332 333 334 335 337 338 339 340 340 339 338 339 338 333 325 319 308 289 274 270 265 255 247 243 241 240 239 238 237 236 234 231 228 227 227 226 226 227 226 223 222 223 224 224 225 225 226 228 228 227 225 223
319 319 320 320 320 321 323 326 334 339 337 332 327 325 323 322 321 322 322 320 319 321 325 327 328 329 329 329 328 328 328 329 330 330 330 331 332 334 335 336 337 336 335 334 335 336 333 326 318 311 295 275 265 264 261 254 247 243 241 240 238 237 236 235 233 230 228 227 226 226 227 227 224 221 221 222 223 224 224 225 226 228 228 227 224
317 318 319 320 321 323 323 324 330 336 336 331 326 323 321 320 318 318 320 319 318 318 321 323 325 325 326 327 327 326 326 326 327 327 327 328 330 331 332 333 334 333 333 332 331 332 332 327 318 310 299 281 265 259 258 257 253 248 244 241 239 238 237 236 235 233 229 227 227 226 226 227 225 222 220 220 221 223 224 225 225 227 227 227 226
319 322 325 325 323 322 322 319 321 326 329 328 325 322 320 318 315 314 316 317 317 316 318 321 322 322 322 324 324 324 324 325 325 325 325 326 327 329 331 331 331 331 330 329 328 329 329 326 318 310 300 286 271 259 255 256 256 253 248 244 241 238 237 236 235 234 232 229 227 226 227 227 226 224 221 219 220 221 223 224 225 226 226 227 226
326 328 328 325 321 319 319 317 314 316 320 323 323 321 321 318 314 312 312 313 315 316 317 320 321 320 320 320 322 322 322 323 323 323 323 324 326 327 329 329 328 328 327 327 326 326 327 324 318 310 300 288 275 263 255 253 254 255 253 247 243 240 237 236 234 233 232 231 228 226 226 227 227 225 222 220 219 220 221 222 223 225 226 226 226
326 324 322 319 318 317 318 317 312 309 313 320 322 321 320 318 314 312 310 311 313 314 316 319 319 318 317 317 319 321 321 321 322 322 322 322 323 325 326 326 326 326 325 325 324 324 325 323 318 310 299 286 275 265 257 253 252 254 255 251 247 243 238 236 234 233 232 231 230 227 226 226 227 226 224 222 220 219 220 221 222 224 226 226 225
318 317 316 317 319 318 316 316 312 307 310 317 319 320 319 316 313 312 310 310 309 311 314 316 316 316 315 315 318 320 320 320 321 320 320 320 320 321 323 324 325 325 324 323 323 323 323 321 316 310 298 283 274 265 258 255 252 252 255 254 250 245 241 237 234 233 231 230 230 229 227 226 226 226 225 223 222 220 220 221 222 223 225 225 225
313 314 313 314 316 316 314 314 311 308 311 315 316 317 318 315 313 313 312 310 308 308 310 312 314 315 314 315 318 319 319 319 319 318 318 318 318 319 322 323 324 323 323 323 323 322 321 318 314 308 296 281 273 265 258 256 254 253 253 254 252 248 242 239 236 233 231 230 229 229 228 227 225 225 225 224 223 222 221 221 221 222 223 224 225
310 312 311 310 311 312 311 310 308 309 312 313 313 316 316 314 313 312 311 311 309 308 308 311 313 313 313 315 317 318 318 318 318 317 317 317 317 319 321 322 322 322 322 322 322 322 320 315 311 306 295 282 272 264 257 255 254 254 252 252 253 250 244 240 237 235 232 230 229 228 228 228 226 225 224 225 224 223 222 221 221 221 222 223 223
308 309 309 308 306 308 308 306 307 309 308 308 311 314 313 312 310 309 310 312 311 308 308 309 311 311 311 313 315 316 317 317 317 317 316 316 317 318 319 320 320 321 321 322 322 322 320 315 309 304 296 285 275 266 258 255 254 254 252 251 252 251 247 241 237 236 233 231 230 228 228 228 227 225 224 224 224 223 222 221 221 221 221 222 222
307 305 305 305 304 305 306 305 305 306 304 306 310 311 310 309 307 307 309 310 308 306 305 307 308 309 310 312 313 315 316 317 317 316 316 316 316 317 318 318 319 320 321 322 321 320 318 314 309 304 297 288 279 269 260 255 254 254 253 251 251 251 248 243 238 236 235 232 230 229 228 227 227 226 224 223 223 223 222 221 221 220 220 221 222
304 301 300 301 301 303 304 303 302 301 302 304 306 307 307 307 307 307 307 305 304 303 305 306 306 308 310 310 312 313 315 316 316 316 316 316 317 317 317 317 318 319 320 321 320 317 315 311 307 303 298 291 284 275 265 256 254 255 254 251 250 249 249 245 239 235 234 233 231 229 228 227 227 226 225 224 223 223 221 220 220 220 220 220 221
298 297 298 299 299 300 300 299 297 297 300 302 303 304 306 307 307 307 305 304 304 305 306 306 306 307 308 309 311 313 314 315 315 316 317 317 316 316 316 317 318 318 319 319 317 314 312 309 304 300 297 292 287 280 270 260 254 254 256 254 251 249 248 246 242 236 232 232 232 230 228 227 226 226 226 225 223 222 221 220 219 220 220 220 220
293 295 298 299 299 298 298 296 296 297 299 301 302 303 305 305 305 305 304 305 305 306 307 306 306 306 307 309 311 312 313 314 315 316 317 316 316 315 316 316 317 317 317 316 313 311 310 307 303 299 295 292 288 283 274 264 256 253 254 255 253 250 247 246 243 238 232 230 231 231 229 227 226 225 225 225 224 222 222 220 219 219 220 220 220
293 295 297 298 299 300 300 298 297 297 297 298 300 301 302 303 303 303 304 304 305 306 306 306 305 306 307 309 311 311 311 312 314 316 316 315 315 315 315 316 317 317 315 313 311 310 310 308 303 298 295 291 288 283 275 266 259 254 253 254 253 252 249 246 244 240 234 229 230 231 231 228 226 225 224 224 224 223 222 221 219 218 219 220 220
292 294 295 295 297 299 300 298 296 296 296 296 297 299 300 301 302 303 303 304 305 305 305 306 307 308 309 310 311 310 311 312 314 315 315 314 314 315 315 316 316 316 314 312 310 311 311 308 303 298 295 292 287 282 274 266 259 256 254 253 253 252 250 247 245 241 236 231 228 230 232 230 227 225 224 224 224 224 222 221 220 219 219 219 219
292 293 294 294 295 296 297 295 295 295 295 295 296 297 298 300 302 303 304 304 304 304 306 307 308 309 311 311 310 310 310 312 314 314 313 313 314 314 315 316 316 315 314 313 313 313 312 308 304 300 295 292 287 281 273 265 259 255 254 254 253 251 249 248 246 243 238 232 229 229 231 231 228 226 225 224 224 224 222 221 221 220 219 219 219
292 293 294 294 294 295 295 295 295 294 293 294 295 295 297 299 302 304 304 303 303 305 307 308 309 311 312 311 309 309 311 312 312 312 312 312 313 314 316 317 316 315 315 314 314 313 311 308 305 302 297 291 286 281 274 266 258 255 254 254 253 251 249 247 246 245 240 233 230 229 230 232 229 226 225 224 223 223 223 222 221 220 219 219 219
291 292 292 292 292 294 295 295 294 292 292 292 293 294 297 300 302 303 304 305 306 307 307 308 310 311 310 309 309 310 311 311 311 311 312 312 313 316 317 316 315 315 314 314 314 312 310 308 306 303 299 293 286 279 274 267 259 254 253 253 252 251 250 247 246 245 241 234 230 229 230 232 230 226 225 225 224 223 223 222 221 220 220 219 219
290 290 290 291 291 292 292 292 291 290 290 291 293 296 299 301 302 304 306 307 308 308 309 309 310 310 308 309 309 309 310 310 310 310 311 312 314 316 316 315 314 314 314 314 313 311 309 308 306 304 300 295 287 280 274 268 262 255 253 253 252 251 250 248 245 244 243 236 230 228 230 232 231 227 225 225 224 222 222 222 222 220 219 219 219
289 289 289 290 290 290 289 288 288 288 289 290 293 298 301 303 304 305 306 308 309 309 309 309 308 308 308 309 309 308 308 308 308 309 311 312 314 315 315 314 314 314 314 313 312 311 309 307 306 304 301 296 289 282 275 269 263 257 253 251 251 250 248 247 246 244 243 239 231 226 227 231 231 227 225 225 223 222 221 221 221 221 219 219 219
287 288 289 289 288 287 286 286 287 288 289 291 294 298 301 303 304 305 307 309 309 308 307 307 308 308 308 309 308 307 308 308 308 310 312 313 314 314 314 314 314 314 313 312 311 310 309 308 306 304 301 297 290 283 276 270 264 259 254 250 250 248 246 246 245 244 243 240 233 225 224 229 230 227 225 224 222 221 221 220 220 220 219 218 218
286 286 288 288 287 286 285 286 287 288 289 290 293 297 299 301 302 305 308 308 306 305 306 308 308 307 307 307 306 306 308 309 310 312 314 314 315 315 314 315 314 314 313 312 312 311 309 308 307 305 302 298 291 284 277 270 264 260 255 251 248 246 245 245 244 243 243 241 234 226 223 226 228 227 225 223 221 220 220 219 219 219 219 218 217
286 287 288 288 287 286 286 285 286 287 288 289 292 294 296 299 302 306 307 305 303 304 306 308 307 307 306 307 307 308 309 311 311 313 314 314 315 315 315 315 314 314 313 313 312 311 309 308 307 306 303 298 291 284 277 270 263 259 256 252 248 245 243 243 243 242 242 240 234 228 225 226 227 227 225 223 220 219 219 219 218 218 218 217 217
285 287 289 289 288 286 286 286 286 286 287 289 292 294 298 302 305 306 306 304 303 304 306 307 308 307 307 308 308 309 310 312 312 313 314 314 314 314 314 314 314 314 314 313 312 311 309 308 307 305 302 297 291 283 276 269 263 257 254 252 250 246 243 242 242 241 241 240 234 229 228 226 225 226 225 222 220 219 218 218 217 216 216 217 216
Height
10965 10964 10962 10961 10959 10958 10956 10954 10952 10951 10950 10948 10946 10944 10941 10939 10937 10935 10933 10930 10928 10927 10924 10922 10921 10920 10920 10919 10919 10918 10918 10918 10918 10919 10919 10920 10920 10920 10920 10921 10921 10920 10919 10918 10919 10921 10924 10925 10926 10927 10927 10927 10927 10926 10926 10926 10926 10926 10925 10925 10926 10928 10929 10930 10931 10932 10932 10933 10933 10933 10934 10934 10934 10935 10936 10937 10938 10939 10940 10940 10941 10942 10942 10942 10942
10966 10964 10962 10961 10959 10957 10956 10954 10952 10951 10949 10947 10945 10944 10941 10939 10937 10935 10932 10929 10927 10925 10923 10920 10918 10916 10915 10915 10915 10914 10914 10914 10914 10915 10915 10915 10916 10917 10917 10917 10918 10918 10917 10916 10917 10920 10923 10924 10924 10924 10925 10925 10925 10925 10924 10924 10925 10925 10925 10925 10926 10927 10928 10929 10930 10931 10932 10932 10933 10933 10934 10934 10935 10935 10936 10937 10938 10939 10939 10940 10941 10942 10942 10943 10943
10965 10964 10962 10960 10959 10957 10955 10954 10952 10950 10948 10946 10944 10943 10941 10939 10936 10934 10931 10928 10925 10923 10920 10918 10915 10913 10911 10910 10910 10910 10910 10909 10910 10910 10910 10911 10912 10912 10913 10914 10915 10915 10914 10914 10915 10918 10920 10921 10921 10922 10922 10922 10923 10922 10921 10922 10923 10924 10924 10924 10925 10926 10927 10928 10929 10930 10931 10932 10933 10933 10934 10934 10935 10935 10936 10937 10938 10939 10939 10940 10941 10942 10942 10943 10943
10965 10963 10961 10960 10959 10957 10955 10953 10951 10949 10947 10945 10943 10942 10940 10938 10935 10933 10930 10927 10924 10921 10918 10915 10912 10909 10907 10905 10904 10904 10904 10904 10905 10905 10906 10906 10907 10908 10909 10910 10911 10912 10911 10911 10912 10914 10916 10917 10917 10918 10919 10919 10919 10919 10918 10919 10921 10922 10923 10924 10924 10924 10925 10926 10927 10928 10929 10931 10932 10933 10934 10934 10935 10935 10936 10937 10937 10938 10939 10940 10941 10942 10942 10942 10943
10965 10963 10961 10960 10958 10957 10955 10953 10951 10949 10947 10944 10943 10941 10939 10937 10934 10932 10929 10926 10923 10920 10916 10912 10909 10906 10903 10901 10899 10898 10898 10898 10899 10900 10900 10901 10902 10903 10904 10906 10907 10908 10908 10908 10909 10910 10911 10912 10913 10914 10916 10917 10917 10917 10917 10918 10919 10921 10922 10923 10923 10923 10923 10924 10925 10926 10927 10929 10930 10932 10933 10934 10935 10935 10936 10936 10937 10938 10939 10940 10941 10942 10942 10942 10943
10964 10963 10961 10959 10958 10956 10954 10953 10951 10949 10946 10944 10942 10940 10938 10936 10934 10931 10928 10925 10922 10918 10914 10910 10906 10902 10899 10897 10894 10893 10892 10893 10893 10894 10895 10896 10897 10898 10899 10901 10902 10903 10904 10904 10905 10906 10907 10907 10908 10911 10913 10914 10915 10915 10916 10917 10917 10918 10919 10920 10921 10921 10921 10922 10923 10924 10925 10927 10928 10930 10932 10933 10934 10935 10935 10936 10937 10938 10939 10940 10941 10941 10942 10942 10943
10964 10962 10961 10959 10957 10955 10954 10952 10950 10948 10945 10943 10941 10939 10937 10935 10933 10930 10927 10923 10920 10916 10913 10909 10904 10900 10896 10893 10891 10888 10887 10887 10887 10888 10889 10890 10891 10893 10894 10895 10897 10898 10899 10900 10901 10902 10903 10904 10905 10907 10910 10911 10912 10913 10914 10914 10914 10915 10916 10917 10918 10920 10921 10922 10923 10924 10925 10926 10927 10928 10930 10931 10932 10933 10934 10935 10936 10937 10938 10939 10940 10941 10942 10942 10943
10963 10962 10960 10958 10956 10955 10953 10951 10949 10946 10944 10942 10940 10938 10936 10934 10931 10928 10925 10921 10917 10914 10911 10907 10903 10899 10894 10890 10887 10885 10883 10882 10882 10883 10883 10884 10886 10887 10888 10890 10892 10893 10894 10895 10896 10897 10898 10899 10901 10903 10906 10908 10909 10909 10910 10910 10909 10909 10912 10914 10916 10919 10921 10922 10923 10924 10925 10925 10926 10927 10928 10930 10931 10932 10933 10934 10935 10936 10937 10938 10939 10940 10941 10942 10943
10963 10961 10959 10957 10955 10954 10952 10950 10947 10945 10943 10940 10938 10936 10934 10932 10929 10926 10923 10919 10915 10912 10908 10905 10902 10898 10894 10889 10885 10882 10879 10878 10877 10878 10878 10879 10880 10882 10883 10885 10886 10888 10889 10890 10891 10892 10893 10895 10897 10899 10901 10903 10905 10906 10906 10905 10903 10904 10908 10912 10914 10917 10919 10921 10921 10922 10923 10923 10924 10925 10926 10928 10929 10930 10931 10932 10933 10934 10935 10936 10938 10939 10940 10941 10942
10962 10960 10958 10956 10954 10952 10950 10948 10946 10943 10941 10939 10936 10934 10932 10929 10927 10924 10921 10917 10914 10910 10906 10903 10900 10897 10893 10889 10884 10880 10877 10875 10873 10873 10874 10874 10875 10876 10878 10879 10881 10882 10884 10885 10886 10887 10888 10890 10892 10894 10896 10898 10900 10901 10901 10900 10901 10903 10906 10910 10912 10915 10917 10918 10919 10920 10920 10921 10922 10923 10924 10926 10927 10928 10929 10930 10931 10933 10934 10935 10936 10937 10939 10940 10941
10961 10959 10957 10955 10953 10951 10949 10946 10944 10941 10939 10937 10935 10933 10930 10927 10924 10922 10919 10915 10912 10908 10904 10901 10898 10895 10891 10888 10884 10879 10876 10873 10870 10870 10870 10871 10871 10872 10873 10874 10875 10877 10878 10879 10881 10882 10884 10886 10888 10889 10891 10893 10894 10895 10895 10897 10900 10902 10904 10907 10910 10912 10914 10916 10918 10918 10919 10920 10920 10921 10922 10923 10925 10926 10927 10928 10929 10930 10932 10933 10934 10935 10937 10938 10940
10959 10957 10955 10953 10951 10949 10947 10945 10942 10940 10938 10936 10933 10931 10928 10925 10922 10919 10917 10914 10910 10907 10903 10899 10896 10893 10890 10887 10883 10879 10875 10872 10869 10867 10867 10867 10868 10869 10869 10870 10870 10871 10873 10874 10875 10877 10879 10881 10883 10885 10887 10888 10889 10889 10890 10894 10897 10899 10902 10904 10907 10909 10912 10915 10917 10918 10918 10918 10918 10919 10919 10920 10922 10924 10925 10926 10927 10928 10929 10931 10932 10934 10935 10936 10938
10958 10955 10953 10951 10949 10947 10945 10943 10941 10939 10937 10934 10931 10928 10926 10923 10920 10918 10915 10912 10908 10905 10902 10898 10895 10891 10888 10886 10883 10878 10874 10871 10869 10866 10865 10864 10865 10865 10866 10867 10867 10867 10867 10869 10870 10871 10873 10875 10877 10879 10881 10883 10884 10884 10886 10889 10892 10895 10899 10901 10903 10906 10911 10915 10918 10918 10917 10916 10916 10916 10916 10916 10917 10920 10923 10924 10925 10926 10927 10928 10930 10932 10933 10935 10936
10956 10954 10952 10950 10947 10945 10943 10942 10940 10937 10935 10932 10929 10927 10924 10922 10919 10917 10914 10910 10907 10904 10900 10897 10894 10891 10887 10884 10882 10878 10874 10871 10868 10866 10864 10863 10862 10862 10862 10863 10864 10864 10864 10864 10865 10866 10867 10869 10871 10873 10875 10878 10879 10880 10881 10884 10887 10890 10894 10897 10900 10904 10908 10913 10915 10914 10913 10911 10911 10911 10911 10912 10913 10915 10918 10921 10923 10924 10925 10926 10928 10929 10931 10933 10934
10954 10952 10950 10948 10946 10944 10942 10940 10938 10935 10933 10930 10928 10925 10923 10920 10917 10915 10912 10909 10906 10902 10899 10896 10893 10890 10887 10884 10881 10878 10874 10871 10869 10866 10864 10862 10860 10859 10858 10858 10859 10860 10860 10860 10861 10862 10863 10864 10866 10868 10869 10871 10874 10875 10876 10879 10881 10885 10889 10892 10896 10899 10903 10907 10907 10906 10904 10904 10905 10906 10906 10907 10909 10911 10913 10916 10918 10921 10922 10924 10925 10927 10928 10930 10932
10952 10950 10948 10946 10944 10942 10940 10937 10935 10933 10931 10928 10926 10923 10920 10917 10915 10912 10910 10907 10904 10901 10898 10895 10892 10889 10886 10884 10881 10878 10874 10871 10868 10866 10864 10862 10859 10857 10856 10854 10854 10854 10856 10857 10857 10858 10859 10860 10862 10863 10864 10866 10868 10870 10872 10874 10876 10879 10883 10887 10890 10894 10897 10899 10899 10898 10898 10899 10901 10902 10901 10902 10905 10907 10909 10911 10914 10916 10919 10921 10922 10924 10926 10927 10929
10950 10948 10945 10944 10941 10939 10937 10935 10933 10930 10928 10926 10923 10920 10917 10914 10912 10910 10907 10905 10902 10900 10897 10894 10891 10888 10885 10882 10880 10878 10874 10871 10867 10864 10862 10860 10858 10856 10854 10852 10850 10850 10850 10851 10853 10854 10855 10857 10858 10859 10860 10862 10863 10864 10866 10868 10871 10874 10877 10881 10884 10887 10890 10892 10893 10893 10895 10896 10897 10897 10897 10899 10902 10903 10906 10908 10911 10913 10915 10917 10919 10921 10923 10924 10926
10946 10944 10942 10941 10938 10936 10934 10932 10930 10928 10926 10923 10920 10917 10915 10912 10909 10907 10904 10902 10900 10898 10895 10893 10889 10886 10883 10881 10878 10876 10874 10871 10867 10863 10860 10858 10856 10854 10852 10849 10848 10847 10846 10847 10848 10849 10851 10853 10854 10855 10856 10857 10858 10860 10861 10863 10865 10868 10871 10874 10878 10881 10884 10886 10887 10888 10890 10892 10892 10893 10895 10897 10899 10901 10902 10904 10907 10910 10912 10914 10916 10918 10920 10921 10923
10944 10942 10940 10938 10936 10933 10931 10929 10927 10925 10923 10920 10918 10915 10912 10909 10906 10904 10902 10900 10897 10895 10893 10891 10887 10884 10881 10879 10876 10874 10872 10869 10867 10864 10860 10856 10853 10851 10850 10848 10846 10844 10844 10843 10844 10845 10846 10848 10849 10850 10851 10852 10853 10854 10856 10857 10859 10861 10865 10868 10871 10874 10877 10879 10881 10883 10884 10886 10888 10890 10891 10893 10895 10897 10899 10901 10903 10906 10908 10911 10913 10915 10917 10919 10920
10941 10940 10938 10936 10933 10931 10928 10926 10924 10922 10920 10917 10914 10911 10908 10906 10903 10902 10900 10898 10895 10893 10890 10888 10885 10883 10880 10877 10874 10872 10869 10867 10865 10863 10860 10856 10852 10849 10846 10845 10843 10842 10841 10840 10841 10841 10842 10843 10844 10845 10845 10846 10847 10848 10850 10851 10853 10855 10858 10861 10864 10868 10871 10873 10875 10877 10879 10881 10883 10885 10887 10889 10892 10893 10895 10897 10900 10902 10905 10907 10909 10912 10914 10916 10917
10939 10937 10935 10933 10930 10928 10925 10923 10921 10919 10916 10914 10911 10908 10905 10903 10901 10899 10897 10895 10893 10890 10888 10885 10883 10880 10877 10875 10872 10870 10867 10864 10862 10860 10858 10855 10851 10848 10844 10841 10840 10839 10838 10837 10837 10837 10838 10838 10839 10840 10840 10841 10842 10843 10844 10845 10847 10849 10852 10854 10857 10860 10863 10866 10869 10871 10872 10874 10877 10880 10882 10885 10887 10890 10892 10894 10896 10899 10901 10903 10905 10908 10910 10912 10915
10936 10934 10932 10929 10927 10924 10922 10920 10918 10915 10912 10910 10907 10904 10902 10900 10898 10896 10894 10892 10890 10887 10885 10883 10880 10878 10875 10872 10869 10867 10864 10861 10858 10856 10854 10852 10850 10847 10844 10841 10838 10836 10834 10833 10833 10833 10833 10833 10834 10834 10835 10835 10836 10837 10838 10839 10841 10843 10845 10848 10851 10853 10856 10859 10862 10864 10866 10868 10870 10874 10877 10879 10882 10885 10888 10890 10892 10894 10896 10898 10901 10903 10906 10908 10911
10932 10930 10928 10925 10923 10920 10918 10916 10914 10911 10908 10905 10903 10901 10899 10897 10895 10893 10891 10889 10887 10885 10882 10880 10878 10875 10873 10870 10866 10864 10861 10858 10855 10852 10850 10848 10846 10844 10843 10840 10837 10834 10832 10830 10829 10828 10828 10828 10828 10828 10828 10829 10830 10830 10831 10832 10834 10836 10839 10841 10844 10846 10849 10852 10854 10857 10860 10862 10864 10867 10870 10874 10877 10880 10883 10885 10887 10889 10891 10894 10897 10899 10902 10904 10907
10928 10926 10924 10921 10919 10916 10914 10911 10909 10907 10904 10902 10900 10898 10895 10893 10891 10890 10888 10886 10884 10881 10879 10877 10875 10872 10870 10867 10864 10860 10858 10855 10852 10850 10847 10845 10843 10841 10840 10838 10836 10833 10831 10829 10828 10826 10824 10822 10821 10821 10821 10822 10822 10824 10825 10826 10827 10829 10831 10834 10837 10839 10842 10844 10847 10850 10853 10855 10858 10861 10864 10867 10871 10874 10877 10880 10882 10885 10887 10889 10892 10895 10898 10901 10903
10924 10922 10920 10917 10915 10912 10910 10907 10905 10903 10901 10899 10897 10894 10892 10890 10888 10887 10885 10883 10880 10878 10876 10874 10871 10869 10867 10864 10860 10857 10854 10852 10849 10847 10844 10842 10840 10838 10836 10833 10832 10830 10828 10827 10826 10825 10823 10819 10816 10814 10814 10814 10815 10816 10818 10819 10820 10822 10824 10826 10829 10831 10834 10837 10839 10842 10845 10848 10851 10854 10857 10860 10864 10867 10871 10874 10877 10879 10882 10885 10887 10890 10893 10896 10899
10920 10918 10916 10914 10911 10909 10906 10904 10902 10900 10898 10896 10893 10891 10889 10888 10886 10884 10882 10880 10877 10875 10873 10870 10868 10866 10863 10860 10857 10854 10851 10849 10846 10843 10840 10838 10836 10833 10831 10828 10826 10824 10823 10822 10821 10820 10819 10816 10812 10808 10806 10806 10807 10808 10810 10811 10812 10813 10816 10818 10820 10823 10825 10829 10831 10834 10837 10840 10843 10846 10849 10853 10857 10861 10864 10868 10871 10874 10877 10880 10882 10885 10888 10891 10893
10916 10914 10912 10910 10907 10905 10903 10901 10899 10897 10895 10892 10890 10888 10886 10885 10883 10881 10879 10877 10874 10871 10869 10866 10864 10862 10859 10856 10854 10850 10848 10846 10843 10840 10836 10834 10831 10828 10826 10823 10820 10818 10816 10815 10815 10813 10810 10808 10806 10803 10799 10797 10798 10799 10801 10802 10803 10804 10807 10809 10811 10814 10817 10819 10823 10826 10828 10831 10835 10838 10841 10846 10850 10853 10857 10861 10864 10868 10871 10874 10877 10880 10883 10885 10888
10912 10910 10908 10905 10903 10901 10900 10898 10896 10894 10892 10889 10888 10885 10883 10881 10879 10877 10875 10872 10869 10867 10864 10862 10860 10857 10855 10852 10850 10847 10844 10842 10839 10835 10832 10829 10827 10824 10821 10818 10815 10812 10809 10806 10806 10806 10803 10799 10796 10795 10793 10790 10789 10791 10792 10793 10794 10795 10797 10800 10802 10805 10808 10811 10814 10817 10821 10823 10826 10830 10833 10837 10842 10846 10849 10854 10858 10861 10865 10868 10871 10874 10877 10880 10883
10908 10906 10904 10902 10900 10898 10896 10894 10892 10890 10888 10886 10884 10882 10880 10877 10875 10873 10871 10868 10865 10862 10859 10857 10855 10852 10850 10847 10845 10843 10840 10837 10834 10830 10827 10824 10821 10819 10816 10813 10810 10806 10801 10797 10796 10797 10795 10791 10788 10786 10785 10783 10782 10782 10783 10784 10785 10786 10788 10791 10793 10796 10799 10802 10805 10808 10812 10816 10819 10822 10825 10829 10834 10838 10842 10846 10850 10854 10858 10862 10865 10868 10872 10875 10878
10905 10902 10900 10898 10896 10894 10892 10890 10888 10886 10884 10882 10880 10878 10876 10873 10871 10868 10866 10863 10860 10857 10854 10852 10849 10847 10845 10842 10840 10837 10835 10832 10828 10825 10822 10819 10816 10813 10810 10807 10804 10800 10795 10789 10785 10786 10785 10783 10780 10777 10775 10774 10774 10774 10775 10775 10776 10777 10779 10781 10783 10786 10789 10792 10796 10799 10803 10807 10811 10814 10818 10821 10825 10830 10834 10838 10842 10847 10851 10855 10858 10862 10865 10869 10872
10901 10899 10897 10895 10892 10890 10888 10886 10884 10882 10879 10878 10876 10874 10871 10868 10866 10863 10861 10858 10855 10851 10848 10846 10843 10841 10839 10837 10834 10831 10829 10826 10823 10820 10817 10813 10810 10807 10803 10800 10797 10794 10790 10784 10777 10775 10775 10773 10770 10769 10767 10765 10765 10766 10766 10766 10767 10768 10769 10771 10773 10775 10779 10782 10785 10789 10793 10797 10801 10806 10810 10813 10817 10821 10826 10830 10834 10839 10844 10848 10851 10855 10859 10863 10866
10898 10896 10893 10891 10888 10886 10884 10882 10879 10876 10873 10872 10870 10868 10865 10863 10860 10858 10856 10853 10849 10846 10842 10840 10837 10835 10833 10831 10828 10825 10822 10820 10817 10813 10810 10807 10803 10800 10798 10795 10791 10787 10783 10777 10770 10766 10764 10763 10761 10759 10758 10756 10756 10757 10757 10757 10758 10758 10759 10761 10763 10765 10768 10771 10774 10778 10782 10787 10791 10796 10801 10805 10809 10813 10817 10822 10826 10831 10835 10840 10844 10848 10852 10856 10860
10893 10891 10889 10886 10883 10881 10879 10876 10873 10870 10867 10865 10863 10862 10859 10856 10854 10852 10850 10847 10844 10840 10837 10834 10831 10829 10827 10825 10822 10819 10816 10813 10810 10807 10804 10801 10797 10794 10792 10788 10784 10781 10776 10771 10764 10757 10754 10753 10752 10750 10749 10747 10746 10748 10748 10748 10749 10749 10749 10750 10752 10754 10757 10760 10763 10767 10772 10776 10781 10786 10791 10795 10799 10803 10808 10813 10818 10823 10827 10832 10836 10840 10845 10849 10854
10888 10886 10884 10881 10879 10876 10873 10871 10868 10865 10861 10858 10856 10855 10852 10850 10847 10845 10842 10840 10837 10834 10831 10828 10825 10823 10820 10818 10816 10812 10809 10807 10804 10801 10798 10794 10791 10787 10784 10780 10776 10773 10769 10764 10758 10750 10743 10741 10742 10741 10740 10738 10736 10738 10739 10739 10738 10739 10740 10741 10742 10744 10746 10749 10752 10756 10762 10766 10771 10775 10780 10785 10789 10794 10799 10804 10809 10815 10819 10824 10828 10833 10837 10842 10846
10883 10881 10879 10876 10873 10871 10868 10866 10863 10860 10856 10852 10850 10848 10845 10843 10840 10838 10835 10833 10831 10828 10825 10822 10820 10817 10814 10812 10809 10806 10803 10800 10797 10794 10791 10787 10783 10779 10775 10772 10768 10764 10761 10757 10751 10744 10736 10730 10730 10731 10730 10728 10727 10727 10729 10730 10729 10728 10729 10731 10732 10733 10736 10739 10741 10745 10751 10756 10760 10765 10769 10774 10779 10785 10790 10795 10800 10806 10811 10816 10820 10825 10830 10834 10839
10876 10875 10873 10870 10867 10865 10862 10860 10858 10855 10850 10847 10844 10842 10839 10837 10834 10832 10830 10827 10825 10822 10819 10817 10814 10811 10808 10804 10801 10798 10795 10792 10789 10786 10783 10779 10775 10771 10767 10763 10759 10755 10752 10748 10743 10738 10731 10724 10719 10720 10720 10719 10718 10718 10720 10720 10718 10718 10719 10721 10722 10723 10725 10729 10731 10734 10740 10745 10750 10754 10759 10764 10769 10774 10780 10785 10791 10797 10803 10807 10812 10817 10822 10827 10832
10871 10869 10867 10864 10861 10859 10856 10853 10851 10848 10844 10841 10839 10836 10834 10831 10829 10827 10825 10822 10819 10816 10813 10810 10807 10804 10801 10797 10794 10790 10787 10783 10780 10777 10774 10770 10766 10762 10758 10753 10749 10745 10741 10738 10734 10730 10727 10720 10713 10709 10709 10709 10708 10708 10710 10711 10708 10708 10710 10711 10711 10712 10715 10719 10721 10724 10728 10734 10739 10743 10748 10753 10758 10763 10769 10775 10780 10786 10792 10798 10803 10809 10814 10819 10824
10865 10862 10861 10859 10856 10853 10850 10847 10844 10841 10838 10835 10833 10830 10828 10826 10823 10821 10818 10816 10813 10809 10806 10803 10800 10796 10793 10789 10785 10782 10778 10775 10771 10768 10764 10761 10756 10752 10748 10744 10740 10735 10732 10728 10725 10722 10720 10716 10709 10703 10699 10698 10698 10698 10700 10701 10699 10698 10699 10701 10701 10702 10705 10708 10711 10713 10717 10722 10727 10732 10737 10742 10747 10753 10758 10764 10769 10775 10782 10789 10795 10800 10806 10811 10816
10859 10856 10855 10853 10850 10847 10844 10840 10837 10834 10831 10829 10826 10824 10822 10819 10816 10813 10810 10807 10805 10802 10798 10795 10792 10788 10785 10781 10777 10773 10769 10765 10762 10758 10755 10751 10746 10742 10738 10735 10730 10726 10722 10719 10716 10714 10711 10708 10702 10697 10692 10688 10688 10689 10689 10690 10690 10690 10689 10689 10690 10692 10695 10698 10700 10703 10707 10711 10715 10720 10725 10730 10736 10741 10746 10752 10758 10765 10772 10779 10785 10792 10797 10803 10808
10853 10852 10850 10847 10844 10842 10839 10835 10831 10828 10826 10823 10819 10817 10815 10812 10809 10806 10803 10799 10796 10792 10790 10787 10784 10781 10777 10773 10769 10765 10760 10756 10752 10748 10745 10741 10736 10732 10728 10725 10721 10716 10712 10709 10706 10704 10702 10698 10693 10689 10685 10680 10679 10679 10678 10679 10681 10681 10680 10679 10680 10682 10685 10688 10689 10691 10697 10700 10703 10707 10713 10718 10724 10730 10734 10740 10747 10754 10762 10769 10776 10782 10788 10794 10800
10849 10847 10845 10842 10839 10837 10833 10829 10825 10822 10820 10817 10813 10810 10808 10805 10802 10799 10796 10792 10788 10785 10781 10779 10776 10773 10770 10765 10761 10756 10751 10747 10743 10738 10734 10731 10727 10722 10718 10715 10711 10707 10703 10699 10696 10693 10691 10687 10683 10679 10676 10672 10669 10668 10668 10668 10670 10671 10670 10670 10671 10671 10674 10677 10678 10681 10686 10690 10692 10696 10700 10706 10712 10717 10723 10730 10736 10743 10751 10758 10765 10772 10778 10785 10791
10843 10842 10839 10836 10833 10831 10827 10822 10818 10816 10813 10810 10807 10803 10801 10798 10795 10792 10788 10784 10781 10777 10774 10771 10768 10764 10761 10757 10751 10746 10742 10738 10734 10729 10724 10720 10716 10712 10707 10704 10700 10696 10692 10688 10685 10682 10680 10676 10672 10669 10666 10662 10658 10657 10656 10657 10659 10660 10659 10661 10662 10662 10663 10666 10667 10670 10675 10680 10683 10686 10689 10694 10701 10706 10712 10720 10725 10732 10741 10748 10755 10762 10768 10775 10782
10836 10834 10832 10829 10826 10824 10820 10815 10811 10809 10807 10804 10801 10797 10794 10791 10788 10784 10779 10776 10773 10769 10766 10762 10758 10755 10752 10747 10741 10736 10732 10729 10726 10720 10715 10710 10706 10702 10697 10692 10688 10684 10681 10677 10674 10671 10668 10664 10660 10658 10655 10652 10648 10644 10644 10647 10648 10648 10649 10650 10651 10652 10653 10655 10657 10659 10664 10669 10674 10676 10677 10682 10689 10696 10703 10709 10714 10721 10730 10738 10745 10752 10759 10766 10773
10828 10826 10824 10821 10818 10816 10813 10809 10805 10802 10800 10798 10795 10791 10788 10785 10781 10777 10772 10768 10765 10762 10758 10754 10750 10746 10742 10737 10732 10727 10723 10720 10716 10711 10706 10700 10696 10691 10686 10681 10676 10672 10669 10667 10664 10660 10657 10653 10649 10645 10643 10641 10638 10633 10632 10635 10638 10638 10638 10639 10640 10641 10643 10645 10647 10648 10651 10659 10665 10667 10667 10670 10678 10688 10694 10698 10704 10712 10721 10728 10735 10742 10750 10757 10764
10821 10818 10816 10814 10811 10808 10805 10802 10799 10795 10793 10791 10789 10786 10782 10779 10775 10771 10766 10762 10758 10753 10749 10745 10742 10738 10733 10728 10723 10718 10714 10710 10706 10702 10697 10691 10686 10682 10676 10670 10665 10661 10658 10656 10654 10651 10647 10643 10638 10634 10631 10629 10627 10623 10620 10623 10626 10628 10628 10628 10630 10631 10633 10636 10637 10637 10640 10648 10654 10657 10658 10660 10669 10680 10684 10687 10695 10704 10711 10717 10724 10732 10740 10747 10754
10814 10812 10809 10806 10804 10801 10799 10796 10792 10788 10786 10784 10783 10779 10775 10772 10768 10764 10759 10754 10749 10744 10739 10736 10733 10728 10723 10719 10715 10710 10705 10701 10697 10692 10687 10682 10677 10672 10667 10661 10655 10651 10648 10646 10643 10640 10636 10633 10629 10624 10620 10617 10616 10613 10610 10611 10614 10617 10617 10617 10619 10621 10623 10624 10626 10627 10630 10636 10643 10649 10650 10652 10661 10671 10674 10677 10686 10695 10701 10707 10713 10721 10729 10737 10745
10807 10804 10802 10799 10797 10794 10792 10789 10786 10781 10778 10777 10775 10772 10768 10764 10760 10755 10751 10746 10741 10735 10730 10727 10724 10719 10715 10711 10705 10700 10697 10693 10688 10685 10679 10673 10669 10663 10657 10651 10646 10641 10638 10635 10632 10628 10624 10622 10618 10614 10611 10607 10604 10602 10601 10601 10602 10605 10607 10607 10608 10611 10613 10613 10614 10618 10621 10625 10631 10640 10644 10644 10651 10661 10664 10668 10676 10684 10691 10697 10704 10710 10719 10727 10735
10799 10796 10794 10792 10789 10787 10784 10782 10778 10774 10770 10768 10767 10763 10759 10756 10752 10747 10743 10738 10733 10727 10722 10719 10716 10711 10707 10704 10696 10691 10689 10683 10678 10675 10670 10663 10659 10654 10648 10642 10637 10631 10627 10623 10619 10616 10613 10610 10607 10604 10601 10597 10594 10591 10591 10591 10591 10593 10595 10597 10598 10600 10602 10602 10604 10608 10612 10614 10621 10631 10637 10637 10641 10649 10654 10658 10666 10674 10680 10686 10693 10700 10708 10716 10725
10791 10789 10786 10784 10781 10779 10776 10773 10770 10767 10763 10760 10759 10755 10751 10748 10744 10740 10736 10731 10726 10720 10715 10713 10709 10703 10700 10696 10686 10680 10679 10674 10668 10664 10659 10652 10647 10643 10637 10633 10627 10621 10616 10611 10607 10604 10601 10598 10595 10593 10591 10588 10584 10581 10580 10581 10582 10582 10583 10585 10587 10589 10591 10592 10595 10599 10602 10604 10610 10622 10629 10630 10631 10637 10643 10649 10657 10663 10668 10675 10682 10689 10697 10706 10715
10784 10782 10779 10776 10773 10770 10768 10765 10763 10760 10756 10753 10750 10747 10743 10740 10736 10732 10727 10722 10718 10713 10708 10704 10700 10695 10693 10689 10679 10670 10667 10663 10658 10654 10649 10642 10637 10632 10627 10623 10617 10611 10605 10600 10596 10592 10589 10586 10584 10582 10580 10578 10575 10571 10569 10570 10572 10572 10573 10574 10576 10579 10581 10583 10586 10590 10592 10594 10601 10612 10619 10621 10622 10626 10633 10641 10648 10652 10656 10663 10671 10679 10687 10696 10705
10777 10775 10772 10768 10765 10762 10759 10757 10756 10754 10750 10745 10742 10739 10735 10731 10727 10723 10717 10712 10709 10705 10699 10694 10690 10685 10683 10680 10673 10665 10659 10652 10646 10643 10639 10634 10629 10623 10618 10614 10608 10601 10595 10590 10586 10582 10578 10576 10574 10572 10570 10568 10565 10563 10560 10560 10561 10563 10563 10564 10565 10568 10573 10575 10577 10580 10582 10584 10593 10602 10607 10610 10614 10616 10623 10632 10638 10640 10645 10653 10661 10669 10678 10686 10694